Hourly Data Report for October 10, 2013

All times are specified in Local Standard Time (LST). Add 1 hour to adjust for Daylight Saving Time where and when it is observed.

RANKIN INLET A
NUNAVUT

62°48'38.000" N
92°06'53.000" W
32.30 m
2303405
71083
YRT

Download Data

Hourly Data (October 2013)
Hourly Data Report for October 10, 2013
Temp Definition
°C
Dew Point Temp Definition
°C
Rel Hum Definition
%
Wind Dir Definition
10's deg

Wind Spd Definition
km/h
Visibility Definition
km
Stn Press Definition
kPa
Hmdx Definition


Wind Chill Definition


Weather Definition


TIME
00:00 Legend Double Dagger -1.2 -4.9 76 17 18 24.1 101.48   -6 Cloudy
01:00 Legend Double Dagger -0.9 -4.4 77 13 18 24.1 101.45   -6 LegendNANA
02:00 Legend Double Dagger -0.2 -3.4 79 15 22 24.1 101.45   -6 LegendNANA
03:00 Legend Double Dagger 0.3 -3.1 78 16 27 24.1 101.41     Cloudy
04:00 Legend Double Dagger 0.5 -2.9 78 16 35 24.1 101.37     LegendNANA
05:00 Legend Double Dagger 0.2 -1.4 89 16 38 24.1 101.36     LegendNANA
06:00 Legend Double Dagger 0.9 -0.6 90 15 37 24.1 101.30     Snow Showers
07:00 Legend Double Dagger 1.5 -0.1 89 16 39 24.1 101.24     Rain Showers
08:00 Legend Double Dagger 1.6 -0.2 88 16 42 19.3 101.22     Rain Showers
09:00 Legend Double Dagger 1.5 0.0 90 16 47 12.9 101.19     Rain Showers
10:00 Legend Double Dagger 2.0 -0.1 86 16 41 16.1 101.18     Rain Showers
11:00 Legend Double Dagger 2.2 0.4 88 16 43 16.1 101.12     Rain Showers
12:00 Legend Double Dagger 2.1 1.4 95 15 42 3.2 101.08     Rain Showers,Fog
13:00 Legend Double Dagger 2.5 1.9 96 16 41 2.4 101.04     Rain Showers,Fog
14:00 Legend Double Dagger 2.8 2.4 97 16 42 1.6 100.97     Rain Showers,Fog
15:00 Legend Double Dagger 3.0 2.6 97 16 39 0.8 100.93     Rain Showers,Fog
16:00 Legend Double Dagger 3.2 2.9 98 17 39 1.2 100.89     Rain Showers,Fog
17:00 Legend Double Dagger 3.2 2.9 98 16 41 0.8 100.84     Rain Showers,Fog
18:00 Legend Double Dagger 3.3 3.0 98 17 38 0.2 100.81     Rain Showers,Fog
19:00 Legend Double Dagger 3.3 3.0 98 17 39 0.6 100.78     Rain Showers,Fog
20:00 Legend Double Dagger 3.4 3.1 98 17 40 0.6 100.76     Rain Showers,Fog
21:00 Legend Double Dagger 3.5 3.2 98 19 43 0.8 100.77     Rain Showers,Fog
22:00 Legend Double Dagger 3.3 2.6 95 19 35 4.8 100.79     Rain Showers,Fog
23:00 Legend Double Dagger 3.1 2.5 96 18 34 4.8 100.76     Rain Showers,Fog

Notes on Data Quality.

Legend

  • E = Estimated
  • M = Missing
  • NA = Not Available
  • ‡ = Partner data that is not subject to review by the National Climate Archives
Date modified: